Location: Biltmore Gardens
(41.6070°N, 83.4666°W)
Time: 09:44:48
(UTC+00:00)

Cosmos 2344 - Pass Details

Date: 26 October 2020
Orbit: 1246 x 2997 km, 63.3° (Epoch: 25 November)

Event Time Altitude Azimuth Distance (km) Brightness Sun altitude
Exits shadow 09:26:57 58° 304° (WNW) 1,445 3.5 -29.0°
Maximum altitude 09:27:12 58° 312° (NW) 1,443 3.6 -29.0°
Drops below altitude 10° 09:35:02 10° 31° (NNE) 3,457 6.3 -27.5°
Sets 09:38:12 0° 36° (NE) 4,587 7.1 -26.9°
